FW1671 Weather Reports


time (UTC)temp
C
wind
direction
speed
KPH
gust
KPH
rain 1hr
cm
rain 24hr
cm
rain mn
cm
humidity
%
barometer
mb
20260506223002 30 282 4.8 14.5 0.00 0.00 0.00 44 1010.5
20260506222501 30 175 1.6 12.9 0.00 0.00 0.00 44 1010.5
20260506222001 30 167 6.4 16.1 0.00 0.00 0.00 43 1010.6
20260506221500 30 194 4.8 16.1 0.00 0.00 0.00 43 1010.7
20260506221001 30 219 6.4 17.7 0.00 0.00 0.00 43 1010.6
20260506220502 31 131 6.4 17.7 0.00 0.00 0.00 42 1010.6
20260506220003 31 202 6.4 0.0 21.41 1.96 0.00 43 1010.6
20260506215559 30 225 4.8 11.3 0.00 0.00 0.00 44 1010.6
20260506215100 30 247 3.2 22.5 0.00 0.00 0.00 44 1010.6
20260506214503 30 239 11.3 22.5 0.00 0.00 0.00 44 1010.8
20260506214002 30 207 11.3 24.1 0.00 0.00 0.00 44 1010.8
20260506213501 30 245 6.4 27.4 0.00 0.00 0.00 44 1010.7
20260506213001 31 259 8.0 27.4 0.00 0.00 0.00 43 1010.7
20260506212503 31 172 8.0 22.5 0.00 0.00 0.00 43 1010.6
20260506212001 31 244 4.8 24.1 0.00 0.00 0.00 44 1010.5
20260506211501 31 175 12.9 24.1 0.00 0.00 0.00 44 1010.5
20260506211002 31 188 4.8 24.1 0.00 0.00 0.00 45 1010.5
20260506210502 31 217 11.3 24.1 0.00 0.00 0.00 44 1010.5
20260506210003 31 207 4.8 16.1 0.00 0.00 0.00 45 1010.6
20260506205501 31 173 6.4 16.1 0.00 0.00 0.00 45 1010.5
20260506205001 31 250 6.4 20.9 0.00 0.00 0.00 45 1010.6
20260506204501 31 184 3.2 17.7 0.00 0.00 0.00 46 1010.5
20260506204000 31 198 6.4 17.7 0.00 0.00 0.00 46 1010.6
20260506203502 30 184 8.0 20.9 0.00 0.00 0.00 47 1010.8
20260506203001 30 244 6.4 20.9 0.00 0.00 0.00 47 1011.0
20260506202503 30 205 3.2 20.9 0.00 0.00 0.00 48 1011.0
20260506202002 30 209 4.8 20.9 0.00 0.00 0.00 48 1011.2
20260506201502 30 183 8.0 17.7 0.00 0.00 0.00 48 1011.3
20260506201002 30 209 6.4 17.7 0.00 0.00 0.00 46 1011.4
20260506200501 31 222 3.2 12.9 0.00 0.00 0.00 47 1011.5
20260506200002 30 184 4.8 16.1 0.00 0.00 0.00 47 1011.7
20260506195559 30 190 4.8 22.5 0.00 0.00 0.00 49 1011.8
20260506195102 30 203 6.4 22.5 0.00 0.00 0.00 50 1011.8
20260506194502 30 245 8.0 20.9 0.00 0.00 0.00 51 1011.9
20260506194002 29 254 4.8 17.7 0.00 0.00 0.00 50 1011.9
20260506193501 30 185 4.8 16.1 0.00 0.00 0.00 51 1011.9
20260506193001 29 191 6.4 14.5 0.00 0.00 0.00 51 1011.8
20260506192501 28 153 1.6 14.5 0.00 0.00 0.00 54 1012.1
20260506192001 28 179 6.4 14.5 0.00 0.00 0.00 56 1012.2
20260506191502 27 198 4.8 16.1 0.00 0.00 0.00 56 1012.4
20260506191002 27 182 6.4 17.7 0.00 0.00 0.00 57 1012.2
20260506190501 27 172 8.0 17.7 0.00 0.00 0.00 56 1012.3
20260506190008 27 238 6.4 14.5 0.00 0.00 0.00 56 1012.6
20260506185501 27 262 6.4 16.1 0.00 0.00 0.00 56 1012.9
20260506185001 27 181 8.0 14.5 0.00 0.00 0.00 55 1012.9
20260506184502 27 205 4.8 16.1 0.00 0.00 0.00 58 1013.0
20260506184001 27 226 6.4 19.3 0.00 0.00 0.00 57 1012.9
20260506183501 27 213 6.4 14.5 0.00 0.00 0.00 59 1012.9
20260506183002 26 213 6.4 16.1 0.00 0.00 0.00 60 1012.9
20260506182501 26 200 3.2 11.3 0.00 0.00 0.00 61 1012.9
20260506182003 26 198 3.2 16.1 0.00 0.00 0.00 61 1013.3
20260506181503 26 211 6.4 16.1 0.00 0.00 0.00 61 1013.4
20260506181001 25 188 6.4 14.5 0.00 0.00 0.00 61 1013.3
20260506180502 25 161 6.4 22.5 0.00 0.00 0.00 62 1013.2
20260506180002 25 206 6.4 22.5 0.00 0.00 0.00 62 1013.4
20260506175559 25 259 6.4 14.5 0.00 0.00 0.00 62 1013.6
20260506175059 25 225 3.2 17.7 0.00 0.00 0.00 62 1013.9
20260506174559 25 171 8.0 24.1 0.00 0.00 0.00 61 1013.9
20260506174100 26 214 8.0 24.1 0.00 0.00 0.00 60 1013.7
20260506173600 26 175 9.7 19.3 0.00 0.00 0.00 60 1014.0
20260506173111 26 222 6.4 17.7 0.00 0.00 0.00 62 1014.2
20260506172607 25 171 8.0 19.3 0.00 0.00 0.00 63 1014.2
20260506172059 25 213 3.2 17.7 0.00 0.00 0.00 65 1014.4
20260506171605 25 169 4.8 17.7 0.00 0.00 0.00 64 1014.4
20260506171103 25 185 6.4 12.9 0.00 0.00 0.00 64 1014.5
20260506170603 25 166 6.4 12.9 0.00 0.00 0.00 64 1014.7
20260506170004 24 191 8.0 14.5 0.00 0.00 0.00 65 1014.8
20260506165602 24 205 3.2 19.3 0.00 0.00 0.00 65 1014.7
20260506165100 25 188 4.8 19.3 0.00 0.00 0.00 65 1014.6
20260506164613 25 218 6.4 17.7 0.00 0.00 0.00 64 1014.9
20260506164100 24 148 4.8 16.1 0.00 0.00 0.00 65 1014.9
20260506163559 25 232 8.0 12.9 0.00 0.00 0.00 64 1014.9
20260506163103 25 194 4.8 12.9 0.00 0.00 0.00 64 1015.0
20260506162559 25 227 4.8 12.9 0.00 0.00 0.00 64 1015.0
20260506162103 25 279 4.8 12.9 0.00 0.00 0.00 64 1015.1
20260506161600 25 198 6.4 11.3 0.00 0.00 0.00 65 1015.0
20260506161101 25 227 4.8 12.9 0.00 0.00 0.00 65 1014.9
20260506160559 25 293 3.2 14.5 0.00 0.00 0.00 65 1015.0
20260506160108 24 240 6.4 14.5 0.00 0.00 0.00 65 1014.9
20260506160001 24 194 4.8 14.5 0.00 0.00 0.00 65 1014.8
20260506155602 24 284 6.4 14.5 0.00 0.00 0.00 65 1014.8
20260506155101 24 280 3.2 14.5 0.00 0.00 0.00 65 1014.9
20260506154604 24 228 6.4 14.5 0.00 0.00 0.00 66 1014.7
20260506154103 24 175 0.0 12.9 0.00 0.00 0.00 67 1014.6
20260506153603 23 246 6.4 12.9 0.00 0.00 0.00 67 1014.6
20260506153114 23 238 4.8 12.9 0.00 0.00 0.00 68 1014.7
20260506152559 23 198 1.6 14.5 0.00 0.00 0.00 68 1014.6
20260506152059 23 244 6.4 14.5 0.00 0.00 0.00 68 1014.5
20260506151600 23 215 4.8 9.7 0.00 0.00 0.00 68 1014.5
20260506151502 23 234 3.2 11.3 0.00 0.00 0.00 68 1014.5
20260506151102 23 238 4.8 11.3 0.00 0.00 0.00 68 1014.5
20260506150559 23 211 6.4 14.5 0.00 0.00 0.00 68 1014.4
20260506150103 23 206 4.8 14.5 0.00 0.00 0.00 68 1014.4
20260506150002 23 246 3.2 14.5 0.00 0.00 0.00 68 1014.4
20260506145559 23 242 4.8 12.9 0.00 0.00 0.00 68 1014.4
20260506145103 23 221 6.4 12.9 0.00 0.00 0.00 69 1014.4
20260506144608 22 225 3.2 11.3 0.00 0.00 0.00 70 1014.4
20260506144059 22 194 3.2 11.3 0.00 0.00 0.00 71 1014.4
20260506143600 22 176 4.8 17.7 0.00 0.00 0.00 72 1014.5
20260506143059 22 244 6.4 17.7 0.00 0.00 0.00 71 1014.6
20260506142559 21 195 4.8 12.9 0.00 0.00 0.00 72 1014.7
20260506142503 21 269 4.8 12.9 0.00 0.00 0.00 72 1014.7
20260506142100 21 240 6.4 12.9 0.00 0.00 0.00 72 1014.7
20260506141559 21 313 3.2 11.3 0.00 0.00 0.00 72 1014.7
20260506141059 21 252 1.6 11.3 0.00 0.00 0.00 72 1014.7
20260506141004 21 252 3.2 11.3 0.00 0.00 0.00 72 1014.7
20260506140559 21 279 4.8 11.3 0.00 0.00 0.00 72 1014.6
20260506140106 21 173 3.2 8.0 0.00 0.00 0.00 73 1014.6
20260506140005 21 234 1.6 6.4 0.00 0.00 0.00 73 1014.6
20260506135559 21 186 3.2 8.0 0.00 0.00 0.00 74 1014.6
20260506135059 20 201 4.8 8.0 0.00 0.00 0.00 74 1014.6
20260506134559 20 213 3.2 11.3 0.00 0.00 0.00 75 1014.7
20260506134102 20 247 4.8 11.3 0.00 0.00 0.00 75 1014.7
20260506133559 20 207 1.6 11.3 0.00 0.00 0.00 76 1014.7
20260506133101 20 194 4.8 11.3 0.00 0.00 0.00 76 1014.5
20260506132559 19 160 3.2 9.7 0.00 0.00 0.00 76 1014.4
20260506132059 19 209 3.2 12.9 0.00 0.00 0.00 77 1014.6
20260506131559 19 196 6.4 12.9 0.00 0.00 0.00 77 1014.6
20260506131059 19 228 3.2 8.0 0.00 0.00 0.00 78 1014.6
20260506130559 18 222 3.2 8.0 0.00 0.00 0.00 78 1014.7
20260506130103 18 194 3.2 12.9 0.00 0.00 0.00 78 1014.7
20260506130002 18 202 3.2 12.9 0.00 0.00 0.00 78 1014.6
20260506125559 18 288 4.8 12.9 0.00 0.00 0.00 78 1014.7
20260506125059 18 230 4.8 12.9 0.00 0.00 0.00 79 1014.8
20260506124608 18 279 4.8 11.3 0.00 0.00 0.00 79 1014.6
20260506124059 18 22 4.8 14.5 0.00 0.00 0.00 79 1014.6
20260506123559 18 264 6.4 14.5 0.00 0.00 0.00 80 1014.6
20260506123102 18 227 1.6 11.3 0.00 0.00 0.00 80 1014.5
20260506122600 18 236 4.8 16.1 0.00 0.00 0.00 80 1014.6
20260506122059 18 232 4.8 16.1 0.00 0.00 0.00 80 1014.4
20260506121602 17 192 3.2 11.3 0.00 0.00 0.00 80 1014.2
20260506121101 17 188 3.2 12.9 0.00 0.00 0.00 81 1014.3
20260506120559 17 250 3.2 12.9 0.00 0.00 0.00 81 1014.3
20260506120059 17 242 1.6 12.9 0.00 0.00 0.00 82 1014.3
20260506120005 17 235 1.6 12.9 0.00 0.00 0.00 82 1014.3
20260506115559 17 225 1.6 11.3 0.00 0.00 0.00 83 1014.3
20260506115059 17 240 3.2 8.0 0.00 0.00 0.00 83 1014.2
20260506114609 17 267 0.0 11.3 0.00 0.00 0.00 83 1014.2
20260506114504 17 267 1.6 11.3 0.00 0.00 0.00 84 1014.2
20260506114102 17 230 3.2 9.7 0.00 0.00 0.00 84 1014.1
20260506113559 16 248 3.2 9.7 0.00 0.00 0.00 84 1013.9
20260506113100 16 210 1.6 9.7 0.00 0.00 0.00 85 1013.7
20260506112559 16 198 3.2 8.0 0.00 0.00 0.00 86 1013.5
20260506112502 16 202 1.6 8.0 0.00 0.00 0.00 86 1013.5
20260506112059 16 207 3.2 8.0 0.00 0.00 0.00 86 1013.4
20260506111559 16 196 3.2 6.4 0.00 0.00 0.00 86 1013.4
20260506111059 16 200 0.0 4.8 0.00 0.00 0.00 87 1013.5
20260506110559 16 226 0.0 4.8 0.00 0.00 0.00 87 1013.5
20260506110100 16 174 1.6 6.4 0.00 0.00 0.00 87 1013.6
20260506110003 16 226 0.0 8.0 0.00 0.00 0.00 87 1013.6
20260506105559 16 180 1.6 8.0 0.00 0.00 0.00 87 1013.6
20260506105100 15 202 1.6 8.0 0.00 0.00 0.00 88 1013.5
20260506104606 15 163 0.0 8.0 0.00 0.00 0.00 88 1013.3
20260506104059 15 172 3.2 8.0 0.00 0.00 0.00 88 1013.3
20260506103559 15 192 1.6 9.7 0.00 0.00 0.00 88 1013.4
20260506103059 15 209 1.6 9.7 0.00 0.00 0.00 88 1013.3
20260506102559 15 186 1.6 4.8 0.00 0.00 0.00 88 1013.3
20260506102104 15 191 1.6 4.8 0.00 0.00 0.00 88 1013.4
20260506101559 15 191 0.0 6.4 0.00 0.00 0.00 88 1013.3
20260506101059 15 183 0.0 6.4 0.00 0.00 0.00 88 1013.2
20260506100559 15 231 1.6 4.8 0.00 0.00 0.00 88 1013.3
20260506100059 15 166 0.0 4.8 0.00 0.00 0.00 88 1013.2
20260506100001 15 166 1.6 4.8 0.00 0.00 0.00 88 1013.1
20260506095559 15 213 0.0 4.8 0.00 0.00 0.00 87 1013.2
20260506095100 15 213 1.6 4.8 0.00 0.00 0.00 87 1013.2
20260506094559 15 219 0.0 4.8 0.00 0.00 0.00 86 1013.4
20260506094103 15 219 0.0 4.8 0.00 0.00 0.00 86 1013.6
20260506093559 15 238 0.0 1.6 0.00 0.00 0.00 85 1013.8
20260506093100 15 238 0.0 1.6 0.00 0.00 0.00 85 1013.8
20260506092559 15 238 0.0 1.6 0.00 0.00 0.00 85 1013.7
20260506092059 15 238 0.0 1.6 0.00 0.00 0.00 84 1013.8
20260506091601 15 238 0.0 3.2 0.00 0.00 0.00 84 1013.7
20260506091101 15 238 0.0 3.2 0.00 0.00 0.00 84 1013.7
20260506090602 16 238 0.0 1.6 0.00 0.00 0.00 83 1013.6
20260506090104 16 238 0.0 1.6 0.00 0.00 0.00 83 1013.7
20260506090001 16 238 0.0 1.6 0.00 0.00 0.00 83 1013.6
20260506085559 16 238 0.0 6.4 0.00 0.00 0.00 83 1013.6
20260506085059 16 238 0.0 6.4 0.00 0.00 0.00 83 1013.6
20260506084606 16 188 0.0 6.4 0.00 0.00 0.00 83 1013.7
20260506084100 16 188 1.6 8.0 0.00 0.00 0.00 83 1013.8
20260506083559 16 214 3.2 8.0 0.00 0.00 0.00 83 1013.9
20260506083059 16 173 1.6 4.8 0.00 0.00 0.00 83 1013.7
20260506082559 16 227 1.6 4.8 0.00 0.00 0.00 82 1013.8
20260506082059 16 211 0.0 4.8 0.00 0.00 0.00 82 1013.9
20260506081603 16 208 0.0 3.2 0.00 0.00 0.00 82 1013.9
20260506081059 16 208 0.0 3.2 0.00 0.00 0.00 82 1014.1
20260506080559 16 208 0.0 8.0 0.00 0.00 0.00 82 1014.2
20260506080107 16 170 0.0 6.4 0.00 0.00 0.00 82 1014.1
20260506073059 16 254 0.0 3.2 0.00 0.00 0.00 81 1014.1
20260506072559 16 162 0.0 3.2 0.00 0.00 0.00 80 1014.0
20260506072059 16 166 0.0 4.8 0.00 0.00 0.00 80 1014.0
20260506071606 16 166 1.6 4.8 0.00 0.00 0.00 80 1014.1
20260506071059 16 178 0.0 4.8 0.00 0.00 0.00 80 1014.1
20260506070602 16 196 0.0 4.8 0.00 0.00 0.00 79 1014.0
20260506070104 16 195 1.6 4.8 0.00 0.00 0.00 79 1013.9
20260506062059 17 189 1.6 4.8 0.00 0.00 0.00 77 1014.1
20260506061559 17 215 1.6 4.8 0.00 0.00 0.00 77 1014.0
20260506061059 17 218 0.0 8.0 0.00 0.00 0.00 76 1014.0
20260506060559 17 168 0.0 4.8 0.00 0.00 0.00 76 1014.2
20260506051059 18 196 3.2 8.0 0.00 0.00 0.00 74 1014.5
20260506050559 18 194 1.6 6.4 0.00 0.00 0.00 74 1014.3
20260506050106 18 173 3.2 9.7 0.00 0.00 0.00 74 1014.5
20260506045002 18 179 0.0 6.4 0.00 0.00 0.00 73 1014.6
20260506044500 18 188 1.6 6.4 0.00 0.00 0.00 73 1014.7
20260506044000 18 199 1.6 8.0 0.00 0.00 0.00 73 1014.6
20260506043501 18 198 3.2 8.0 0.00 0.00 0.00 73 1014.7
20260506043002 18 176 0.0 14.5 0.00 0.00 0.00 72 1014.7
20260506042501 18 192 4.8 14.5 0.00 0.00 0.00 72 1014.6
20260506042001 18 170 1.6 11.3 0.00 0.00 0.00 72 1014.6
20260506041500 18 193 3.2 11.3 0.00 0.00 0.00 71 1014.7
20260506041003 18 209 0.0 9.7 0.00 0.00 0.00 71 1014.7
20260506040501 18 179 3.2 12.9 0.00 0.00 0.00 71 1014.7
20260506040007 18 225 1.6 14.5 0.00 0.00 0.00 71 1014.8
20260506035503 18 175 3.2 8.0 0.00 0.00 0.00 70 1014.7
20260506035001 19 183 1.6 8.0 0.00 0.00 0.00 70 1014.7
20260506034503 19 147 1.6 14.5 0.00 0.00 0.00 70 1014.7
20260506034002 19 138 3.2 14.5 0.00 0.00 0.00 69 1014.8
20260506033500 19 184 4.8 11.3 0.00 0.00 0.00 69 1014.8
20260506033000 19 190 0.0 11.3 0.00 0.00 0.00 68 1014.8
20260506032501 19 259 0.0 9.7 0.00 0.00 0.00 68 1014.7
20260506032003 20 155 1.6 9.7 0.00 0.00 0.00 67 1014.7
20260506031502 20 214 1.6 8.0 0.00 0.00 0.00 66 1014.6
20260506031001 20 142 0.0 11.3 0.00 0.00 0.00 66 1014.5
20260506030503 20 111 4.8 11.3 0.00 0.00 0.00 65 1014.5
20260506030015 20 161 1.6 9.7 0.00 0.00 0.00 65 1014.3
20260506025501 20 163 1.6 8.0 0.00 0.00 0.00 64 1014.4
20260506025002 20 184 3.2 14.5 0.00 0.00 0.00 63 1014.4
20260506024504 20 181 3.2 14.5 0.00 0.00 0.00 63 1014.4
20260506024002 20 161 0.0 11.3 0.00 0.00 0.00 62 1014.3
20260506023502 20 115 3.2 11.3 0.00 0.00 0.00 61 1014.5
20260506023000 21 190 3.2 12.9 0.00 0.00 0.00 61 1014.3
20260506022500 21 94 4.8 12.9 0.00 0.00 0.00 60 1014.5
20260506022002 21 161 3.2 16.1 0.00 0.00 0.00 60 1014.5
20260506021501 21 201 4.8 16.1 0.00 0.00 0.00 59 1014.5
20260506021004 21 201 1.6 12.9 0.00 0.00 0.00 59 1014.6
20260506020500 21 196 3.2 14.5 0.00 0.00 0.00 58 1014.6
20260506020003 21 170 0.0 14.5 0.00 0.00 0.00 58 1014.4
20260506015502 21 198 0.0 16.1 0.00 0.00 0.00 57 1014.5
20260506015002 22 325 4.8 16.1 0.00 0.00 0.00 57 1014.3
20260506014501 22 147 8.0 20.9 0.00 0.00 0.00 57 1014.2
20260506014000 22 186 4.8 20.9 0.00 0.00 0.00 57 1014.1
20260506013501 22 163 1.6 16.1 0.00 0.00 0.00 56 1014.0
20260506013001 22 146 3.2 16.1 0.00 0.00 0.00 56 1013.9
20260506012502 22 162 3.2 19.3 0.00 0.00 0.00 56 1013.8
20260506012004 22 156 6.4 20.9 0.00 0.00 0.00 56 1013.8
20260506011501 22 150 6.4 16.1 0.00 0.00 0.00 56 1013.6
20260506011000 23 109 3.2 20.9 0.00 0.00 0.00 55 1013.5
20260506010502 23 161 8.0 20.9 0.00 0.00 0.00 55 1013.4
20260506010010 23 174 4.8 11.3 0.00 0.00 0.00 54 1013.4
20260506005501 23 156 1.6 11.3 0.00 0.00 0.00 53 1013.2
20260506005001 23 164 1.6 9.7 0.00 0.00 0.00 52 1013.1
20260506004503 23 125 1.6 16.1 0.00 0.00 0.00 51 1012.9
20260506004002 23 156 6.4 16.1 0.00 0.00 0.00 50 1012.7
20260506003501 23 136 1.6 6.4 0.00 0.00 0.00 47 1012.7
20260506003001 23 135 1.6 4.8 0.00 0.00 0.00 45 1012.7
20260506002500 23 126 0.0 3.2 0.00 0.00 0.00 47 1012.6
20260506002000 24 126 0.0 3.2 0.00 0.00 0.00 45 1012.5
20260506001502 25 126 0.0 3.2 0.00 0.00 0.00 42 1012.6
20260506001001 25 126 0.0 8.0 0.00 0.00 0.00 41 1012.5
20260506000502 25 162 1.6 8.0 0.00 0.00 0.00 40 1012.5
20260506000003 25 209 0.0 4.8 0.00 0.00 0.00 40 1012.6
20260505235500 25 210 0.0 8.0 0.00 0.00 0.00 40 1012.6
20260505235004 26 209 0.0 9.7 0.00 0.00 0.00 38 1012.6
20260505234501 26 198 0.0 8.0 0.00 0.00 0.00 37 1012.6
20260505234004 26 199 0.0 8.0 0.00 0.00 0.00 37 1012.5
20260505233600 26 173 1.6 11.3 0.00 0.00 0.00 36 1012.5
20260505233503 26 182 1.6 11.3 0.00 0.00 0.00 36 1012.5
20260505233000 27 204 1.6 11.3 0.00 0.00 0.00 36 1012.5
20260505232500 27 161 1.6 11.3 0.00 0.00 0.00 35 1012.5
20260505232003 27 188 1.6 9.7 0.00 0.00 0.00 35 1012.6
20260505231502 27 180 1.6 9.7 0.00 0.00 0.00 35 1012.6
20260505231002 27 225 0.0 9.7 0.00 0.00 0.00 34 1012.6
20260505230500 27 178 3.2 9.7 0.00 0.00 0.00 34 1012.7
20260505230007 27 180 3.2 14.5 0.00 0.00 0.00 34 1012.7
20260505225502 27 176 6.4 14.5 0.00 0.00 0.00 34 1012.8
20260505225101 27 230 4.8 16.1 0.00 0.00 0.00 33 1012.8
20260505224501 28 185 8.0 17.7 0.00 0.00 0.00 32 1012.6
20260505224100 28 205 8.0 17.7 0.00 0.00 0.00 33 1012.7
20260505224004 28 92 4.8 14.5 0.00 0.00 0.00 33 1012.6
20260505223600 28 190 4.8 14.5 0.00 0.00 0.00 33 1012.6
20260505223501 28 201 4.8 11.3 0.00 0.00 0.00 33 1012.5